Location: Antin
(43.3330°N, 0.2804°E)
Time: 03:24:18
(UTC+00:00)

Cosmos 1125 Rocket - Pass Details

Date: 16 October 2021
Orbit: 758 x 779 km, 74.0° (Epoch: 02 December)

Event Time Altitude Azimuth Distance (km) Brightness Sun altitude
Rises 17:33:22 0° 176° (S) 3,236 6.8 -4.3°
Reaches altitude 10° 17:35:53 10° 168° (SSE) 2,311 6.0 -4.7°
Maximum altitude 17:40:41 38° 102° (ESE) 1,171 4.0 -5.6°
Drops below altitude 10° 17:45:29 10° 36° (NE) 2,313 5.6 -6.5°
Sets 17:48:00 0° 28° (NNE) 3,240 6.4 -6.9°
